Location: Burbank
(38.7788°N, 114.0429°W)
Time: 23:07:53
(UTC+00:00)

S-56A Canister/Altair - Pass Details

Date: 17 May 2026
Orbit: 633 x 2484 km, 38.9° (Epoch: 1 June)

Event Time Altitude Azimuth Distance (km) Brightness Sun altitude
Rises 01:05:56 0° 199° (SSW) 3,735 11.2 17.0°
Reaches altitude 10° 01:10:32 10° 172° (S) 2,436 10.0 16.1°
Maximum altitude 01:12:44 12° 148° (SSE) 2,134 9.5 15.7°
Drops below altitude 10° 01:14:45 10° 123° (ESE) 2,186 9.4 15.3°
Sets 01:18:20 0° 92° (E) 2,964 9.9 14.6°
